STARLINK-11693 [DTC]

Last updated on Fri May 30 2025 00:02:04 GMT+0000 (Coordinated Universal Time)

1 63763U 25089N 25149.45468288 .00000329 00000+0 47532-5 0 9994 2 63763 42.9966 206.3478 0001454 272.7931 87.2772 15.77858771 5316
UTC large
Height (km)
Speed (km/s)
/
Latitude / Longitude
Inclination (degrees)
Orbital Period (minutes)
Azimuth
Elevation
Range (km)
Doppler Factor

Next 0 passes for location: London (51.5072 / 0.1276)

Sorry there are no passes over London.